Regional Weather Roundup
Issued by NWS

Home | Current Version | Previous Version | Text Only | Print | Product List | Glossary On
Versions: 1 2 3 4 5 6 7 8 9 10 11 12 13 14 15 16 17 18 19 20 21 22 23 24 25 26 27 28 29 30 31 32 33 34 35 36 37 38 39 40 41 42 43 44 45 46 47 48
000
ASUS44 KBMX 221110
RWRAL

ALABAMA REGIONAL WEATHER ROUNDUP
NATIONAL WEATHER SERVICE BIRMINGHAM AL
500 AM CST MON DEC 22 2014

NOTE: "FAIR" INDICATES FEW OR NO CLOUDS BELOW 12,000 FEET
WITH NO SIGNIFICANT WEATHER AND/OR OBSTRUCTIONS TO VISIBILITY.

THE REMARK "TC" DENOTES TEMPERATURE IN DEGREES CELSIUS.

ALZ001>011-014-016>018-020-221200-
NORTH ALABAMA

CITY           SKY/WX    TMP DP  RH WIND       PRES   REMARKS
MUSCLE SHOALS  CLOUDY    50  46  86 E8        29.95S FOG
HUNTSVILLE     CLOUDY    50  45  83 SE10      29.96F
DECATUR        CLOUDY    49  45  86 S7        29.98R
HALEYVILLE     CLOUDY    47  47 100 SE5       29.97R FOG
GADSDEN        CLOUDY    48  45  87 E5        29.99S
$$

ALZ012-013-022-023-030>036-040>044-221200-
WEST CENTRAL ALABAMA

CITY           SKY/WX    TMP DP  RH WIND       PRES   REMARKS
TUSCALOOSA     CLOUDY    52  50  93 SE3       29.96R FOG
$$

ALZ015-024>027-033>036-040>044-221200-
CENTRAL ALABAMA

CITY           SKY/WX    TMP DP  RH WIND       PRES   REMARKS
BIRMINGHAM     CLOUDY    50  47  89 E3        29.98R
MONTGOMERY     CLOUDY    51  49  92 E6        30.00R
SHELBY CO ARPT CLOUDY    50  49  96 E5        29.96S FOG
MAXWELL AFB    CLOUDY    51  50  96 E5        29.99R
GREENVILLE     CLOUDY    52  50  93 CALM      29.96R FOG
$$

ALZ019-021-028-029-037-038-045>048-221200-
EAST CENTRAL ALABAMA

CITY           SKY/WX    TMP DP  RH WIND       PRES   REMARKS
ANNISTON       CLOUDY    49  46  90 E8        30.00R
ALEXANDER CITY CLOUDY    52  48  86 E6        29.99R FOG
AUBURN         CLOUDY    46  43  87 E9        30.00F
$$

ALZ051>064-221200-
SOUTHWEST ALABAMA

CITY           SKY/WX    TMP DP  RH WIND       PRES   REMARKS
MOBILE         CLOUDY    54  54 100 E8        29.89R
BROOKLEY FIELD CLOUDY    58  56  93 NE7       29.91R
EVERGREEN      CLOUDY    54  53  97 E7        29.94F FOG
$$

ALZ049-050-065>069-221200-
SOUTHEAST ALABAMA

CITY           SKY/WX    TMP DP  RH WIND       PRES   REMARKS
DOTHAN         FOG       50  50 100 E7        30.00S VSB 3/4
OZARK          FOG       51  50  96 NE6       29.97S VSB 1
TROY           CLOUDY    50  49  96 E6        29.97S FOG
EUFAULA        CLOUDY    49  48  97 E5        29.98S FOG
$$


USA.gov is the U.S. government's official web portal to all federal, state and local government web resources and services.